Terminal Aerodrome Forecast
Issued by NWS Tuscon, AZ

Home | Current Version | Previous Version | Text Only | Print | Product List | Glossary On
Versions: 1 2 3 4 5 6 7 8 9 10 11 12 13 14 15 16 17
000
FTUS45 KTWC 310100 AAB
TAFDUG
TAF AMD
KDUG 310158Z 3102/3124 20008KT P6SM VCSH SCT080 BKN150
     FM310300 13007KT P6SM SCT100 BKN200
     FM311900 31008KT P6SM VCSH SCT080=

USA.gov is the U.S. government's official web portal to all federal, state and local government web resources and services.